This is the latest recevied weather packets stored in our database for station/object K1AWR. If no packets are shown the sender has not sent any weather packets the latest 10 day(s).
| Time | Temp. | Humidity | Pressure | Rain* | Wind** | Luminosity | Snow |
|---|---|---|---|---|---|---|---|
| 1778063503 | 14.44° C | 83% | 1010.5 hPa | 0 mm | - | 19 W/m² | - |
| 1778063201 | 14.44° C | 83% | 1010.5 hPa | 0 mm | - | 24 W/m² | - |
| 1778062899 | 14.44° C | 83% | 1010.2 hPa | 0 mm | - | 25 W/m² | - |
| 1778062595 | 13.89° C | 84% | 1010.3 hPa | 0 mm | - | 22 W/m² | - |
| 1778062292 | 13.89° C | 84% | 1010.2 hPa | 0 mm | - | 14 W/m² | - |
| 1778061991 | 13.89° C | 83% | 1010.6 hPa | 0 mm | - | 9 W/m² | - |
| 1778061688 | 13.89° C | 83% | 1010.2 hPa | 0 mm | - | 6 W/m² | - |
| 1778061387 | 13.89° C | 84% | 1010.3 hPa | 0 mm | - | 4 W/m² | - |
| 1778061083 | 13.89° C | 83% | 1010.3 hPa | 0 mm | - | 3 W/m² | - |
| 1778060781 | 13.89° C | 83% | 1010.2 hPa | 0 mm | - | 2 W/m² | - |
| 1778060478 | 13.89° C | 83% | 1010.2 hPa | 0 mm | - | 1 W/m² | - |
| 1778060176 | 13.89° C | 83% | 1010.3 hPa | 0 mm | - | 1 W/m² | - |
| 1778059873 | 13.89° C | 83% | 1010.3 hPa | 0 mm | - | 0 W/m² | - |
| 1778059571 | 13.89° C | 82% | 1010.2 hPa | 0 mm | - | 0 W/m² | - |
| 1778059268 | 13.89° C | 82% | 1010.2 hPa | 0 mm | - | 0 W/m² | - |
| 1778058966 | 14.44° C | 82% | 1010.2 hPa | 0 mm | - | 0 W/m² | - |
| 1778058663 | 13.89° C | 82% | 1010.3 hPa | 0 mm | - | 0 W/m² | - |
| 1778058361 | 13.89° C | 82% | 1010.3 hPa | 0 mm | - | 0 W/m² | - |
| 1778058057 | 14.44° C | 81% | 1010.2 hPa | 0 mm | - | 0 W/m² | - |
| 1778057754 | 14.44° C | 81% | 1010.3 hPa | 0 mm | - | 0 W/m² | - |
| 1778057450 | 14.44° C | 81% | 1010.2 hPa | 0 mm | - | 0 W/m² | - |
| 1778057147 | 14.44° C | 81% | 1010.1 hPa | 0 mm | - | 0 W/m² | - |
| 1778056843 | 14.44° C | 81% | 1010.5 hPa | 0 mm | - | 0 W/m² | - |
| 1778056541 | 14.44° C | 80% | 1010.3 hPa | 0 mm | - | 0 W/m² | - |
| 1778056238 | 14.44° C | 80% | 1010.5 hPa | 0 mm | - | 0 W/m² | - |
* Rain latest hour (hover to see other rain measurements)
** Current wind speed in m/s (hover to see current wind gust speed)